Regional Weather Roundup
Issued by NWS

Home | Current Version | Previous Version | Text Only | Print | Product List | Glossary Off
Versions: 1 2 3 4 5 6 7 8 9 10 11 12 13 14 15 16 17 18 19 20 21 22 23 24 25 26 27 28 29 30 31 32 33 34 35 36 37 38 39 40 41 42 43 44 45 46 47 48 49 50

000
ASUS43 KOAX 252302
RWRNE

WEATHER ROUNDUP FOR NEBRASKA
NATIONAL WEATHER SERVICE OMAHA NE
500 PM CST SUN JAN 25 2015

NOTES: SATELLITE DATA IS BEING USED TO AUGMENT CLOUD COVER ABOVE
       12000 FEET.
       "FAIR" INDICATES FEW OR NO CLOUDS BELOW 12,000 FEET WITH NO
       SIGNIFICANT WEATHER AND/OR OBSTRUCTIONS TO VISIBILITY.

  * THESE STATIONS DO NOT REPORT WEATHER SUCH AS RAIN...SNOW OR FOG.

NEZ001>004-019>022-054>056-260000-
NEBRASKA PANHANDLE

CITY           SKY/WX    TMP DP  RH WIND       PRES   REMARKS
SCOTTSBLUFF    CLEAR     51  34  52 W13       30.05S
ALLIANCE       CLOUDY    46  34  62 W10       30.03S
CHADRON        CLOUDY    50  34  54 NW8       30.00S
SIDNEY         PTCLDY    53  32  44 NW13      30.07S
$$

NEZ057>060-069>072-079>082-260000-
SOUTHWEST NEBRASKA

CITY           SKY/WX    TMP DP  RH WIND       PRES   REMARKS
NORTH PLATTE   CLEAR     50  21  32 NW9       30.05S
IMPERIAL       CLOUDY    52  32  46 NW15      30.07R
LEXINGTON      CLEAR     46  28  50 NE5       30.06F
MCCOOK         CLEAR     54  16  22 N9        30.06R
$$

NEZ005>010-023>029-035>040-094-260000-
NORTH CENTRAL NEBRASKA

CITY           SKY/WX    TMP DP  RH WIND       PRES   REMARKS
VALENTINE      CLEAR     42  26  53 NW6       30.02S
AINSWORTH      PTCLDY    40  29  64 CALM      30.02F
BROKEN BOW     CLEAR     44  29  55 N6        30.06S
ORD            MOCLDY    41  28  60 NW8       30.06S
$$

NEZ041-046>049-061>064-073>077-083>087-260000-
SOUTH CENTRAL NEBRASKA

CITY           SKY/WX    TMP DP  RH WIND       PRES   REMARKS
GRAND ISLAND   CLOUDY    41  29  62 NW10      30.08F
AURORA         CLOUDY    41  32  69 N9        30.07F
HASTINGS       MOCLDY    42  28  57 N14       30.08S
KEARNEY *      PTCLDY    43  27  52 N8        30.08S
$$

NEZ011>018-030>034-042>045-260000-
NORTHEAST NEBRASKA

CITY           SKY/WX    TMP DP  RH WIND       PRES   REMARKS
NORFOLK        CLOUDY    38  31  76 NW9       30.06R WCI  31
ALBION         CLOUDY    39  33  77 NW3       30.06S
BLAIR          CLOUDY    39  32  76 N6        30.06R WCI  35
COLUMBUS *     CLOUDY    39  28  65 NW12      30.08S WCI  32
FREMONT        CLOUDY    38  33  81 NW9       30.08R WCI  32
TEKAMAH        CLOUDY    39  32  76 NW9       30.08R WCI  33
$$

NEZ050>053-065>068-078-088>093-260000-
SOUTHEAST NEBRASKA

CITY           SKY/WX    TMP DP  RH WIND       PRES   REMARKS
LINCOLN        CLOUDY    40  31  70 N9        30.10R WCI  34
OMAHA EPPLEY   MOCLDY    39  31  72 NW10      30.07R WCI  32
FALLS CITY     CLOUDY    39  31  72 N9        30.06R WCI  33
NEBRASKA CITY  MOCLDY    38  24  56 N9        30.07R WCI  32
$$

NEZ044-045-051>053-067-260000-
OMAHA AREA

CITY           SKY/WX    TMP DP  RH WIND       PRES   REMARKS
OMAHA EPPLEY   MOCLDY    39  31  72 NW10      30.07R WCI  32
BLAIR          CLOUDY    39  32  76 N6        30.06R WCI  35
FREMONT        CLOUDY    38  33  81 NW9       30.08R WCI  32
OFFUTT AFB     CLOUDY    40  27  60 N8        30.07R WCI  34
WAHOO          CLOUDY    38  31  74 NW8       30.08R WCI  32
$$


USA.gov is the U.S. government's official web portal to all federal, state and local government web resources and services.